This demonstration page uses our WeatherBlox Daily Observations layout. Learn more.

Left ArrowRight Arrow

39.01783, -85.05884

Hourly Observations for July 18, 2021

Temp ( °F °C ) Dew Point ( °F °C ) Humidity (%) Winds ( mph kmh ) Pressure ( in mb ) Visibility ( mi km ) Precip ( " mm )
12:52 am 00:52 Mostly Cloudy 73 22.8 64 17.8 74 74 E 10 17 30.12 1020 10 16 0.00 0.00
1:52 am 01:52 Mostly Cloudy 72 22.2 64 17.8 76 76 ENE 9 15 30.11 1020 10 16 0.00 0.00
2:52 am 02:52 Mostly Clear 70 21.1 63 17.2 79 79 E 7 11 30.12 1020 10 16 0.00 0.00
3:52 am 03:52 Partly Cloudy 69 20.6 63 17.2 81 81 E 5 7 30.13 1020 10 16 0.00 0.00
4:52 am 04:52 Mostly Cloudy 68 20 62 16.7 81 81 E 6 9 30.13 1020 10 16 0.00 0.00
5:52 am 05:52 Cloudy 68 20 62 16.7 81 81 ENE 6 9 30.14 1021 10 16 0.00 0.00
6:52 am 06:52 Cloudy 68 20 61 16.1 78 78 E 7 11 30.15 1021 10 16 0.00 0.00
7:52 am 07:52 Mostly Cloudy 69 20.6 61 16.1 76 76 E 6 9 30.18 1022 10 16 0.00 0.00
8:52 am 08:52 Mostly Cloudy 70 21.1 60 15.6 71 71 E 12 19 30.18 1022 10 16 0.00 0.00
9:52 am 09:52 Mostly Cloudy 72 22.2 58 14.4 61 61 E 12 19 30.19 1022 10 16 0.00 0.00
10:52 am 10:52 Mostly Cloudy 73 22.8 59 15 62 62 E 10 17 30.19 1022 10 16 0.00 0.00
11:52 am 11:52 Mostly Cloudy 77 25 60 15.6 56 56 E 12 19 30.19 1022 10 16 0.00 0.00
12:52 pm 12:52 Mostly Sunny 78 25.6 59 15 52 52 ESE 12 19 30.16 1022 10 16 0.00 0.00
1:52 pm 13:52 Partly Cloudy 80 26.7 59 15 49 49 E 5 7 30.16 1022 10 16 0.00 0.00
2:52 pm 14:52 Partly Cloudy 81 27.2 60 15.6 49 49 E 7 11 30.14 1021 10 16 0.00 0.00
3:52 pm 15:52 Partly Cloudy 82 27.8 60 15.6 47 47 NNE 10 17 30.13 1020 10 16 0.00 0.00
4:52 pm 16:52 Mostly Cloudy 82 27.8 58 14.4 44 44 E 10 17 30.12 1020 10 16 0.00 0.00
5:52 pm 17:52 Partly Cloudy 81 27.2 59 15 47 47 E 9 15 30.11 1020 10 16 0.00 0.00
6:52 pm 18:52 Partly Cloudy 81 27.2 60 15.6 49 49 E 10 17 30.11 1020 10 16 0.00 0.00
7:52 pm 19:52 Mostly Sunny 79 26.1 60 15.6 52 52 E 10 17 30.11 1020 10 16 0.00 0.00
8:52 pm 20:52 Mostly Sunny 76 24.4 60 15.6 58 58 E 8 13 30.12 1020 10 16 0.00 0.00
9:52 pm 21:52 Mostly Clear 74 23.3 59 15 60 60 E 7 11 30.13 1020 10 16 0.00 0.00
10:52 pm 22:52 Clear 76 24.4 59 15 56 56 ENE 8 13 30.13 1020 10 16 0.00 0.00
11:52 pm 23:52 Mostly Clear 73 22.8 60 15.6 64 64 E 3 6 30.13 1020 10 16 0.00 0.00

Powered by AerisWeather